Location: Piolenc
(44.1794°N, 4.7641°E)
Time: 04:15:48
(UTC+00:00)

USA 267 - Pass Details

Date: 27 January 2021
Orbit: 1102 x 1106 km, 123.0° (Epoch: 22 February)

Event Time Altitude Azimuth Distance (km) Brightness Sun altitude
Rises 05:07:47 0° 171° (S) 3,905 6.3 -20.8°
Reaches altitude 10° 05:10:50 10° 185° (S) 2,950 5.5 -20.3°
Maximum altitude 05:15:53 24° 236° (SW) 2,114 4.3 -19.4°
Enters shadow 05:16:25 23° 243° (WSW) 2,126 4.3 -19.3°
